Weather History for Orange City, IA

Change the Weather History Date:

Monday, February 4, 2013

  Actual Average Record
Temperature  
Mean Temperature 18 °F -  
Max Temperature 24 °F 30 °F 64 °F (2005)
Min Temperature 12 °F 13 °F -14 °F (1949)
Degree Days  
Heating Degree Days 47    
Moisture  
Dew Point 14 °F    
Average Humidity 80    
Maximum Humidity 86    
Minimum Humidity 73    
Precipitation  
Precipitation 0.00 in - - ()
Sea Level Pressure  
Sea Level Pressure 29.91 in    
Wind  
Wind Speed 9 mph (NNW)    
Max Wind Speed 16 mph    
Max Gust Speed 24 mph    
Visibility 10 miles    
Events Snow    
Averages and records for this station are not official NWS values.
T = Trace of Precipitation, MM = Missing Value Source: NWS Daily Summary

Daily Weather History Graph

Daily Weather History Graph

Search for Another Location

Airport:

Trip Planner

Search our weather history database for the weather conditions in past years. The results will help you decide how hot, cold, wet, or windy it might be!

Date:

Astronomy

Feb. 04, 2013 Rise Set
Actual Time 7:35 AM CST 5:41 PM CST
Civil Twilight 7:05 AM CST 6:11 PM CST
Nautical Twilight 6:31 AM CST 6:45 PM CST
Astronomical Twilight 5:58 AM CST 7:18 PM CST
Moon 2:14 AM CST (2/4) 12:03 PM CST (2/4)
Length of Visible Light 11h 05m
Length of Day
10h 05m
Last Quarter, 37% of the Moon is Illuminated
Feb 4
Last Quarter
Feb 10
New
Feb 17
First Quarter
Feb 25
Full
Mar 4
Last Quarter

Hourly Weather History & Observations

Time (CST) Temp. Windchill Dew Point Humidity Pressure Visibility Wind Dir Wind Speed Gust Speed Precip Events Conditions
12:15 AM 21.2 °F 8.3 °F 17.6 °F 86% 29.79 in 10.0 mi NE 13.8 mph 21.9 mph N/A   Clear
12:35 AM 21.2 °F 9.5 °F 17.6 °F 86% 29.80 in 10.0 mi NE 11.5 mph 24.2 mph N/A   Clear
12:55 AM 19.4 °F 6.0 °F 15.8 °F 86% 29.80 in 10.0 mi NE 13.8 mph 20.7 mph N/A   Clear
1:15 AM 19.4 °F 6.6 °F 15.8 °F 86% 29.82 in 10.0 mi NNE 12.7 mph 23.0 mph N/A   Mostly Cloudy
1:35 AM 19.4 °F 5.0 °F 14.0 °F 80% 29.82 in 10.0 mi NE 16.1 mph 20.7 mph N/A   Overcast
1:55 AM 19.4 °F 7.9 °F 14.0 °F 80% 29.84 in 10.0 mi NE 10.4 mph 20.7 mph N/A   Overcast
2:15 AM 17.6 °F 6.4 °F 14.0 °F 86% 29.85 in 10.0 mi NE 9.2 mph 19.6 mph N/A   Overcast
2:35 AM 19.4 °F 7.2 °F 15.8 °F 86% 29.86 in 10.0 mi NE 11.5 mph 18.4 mph N/A   Overcast
2:55 AM 19.4 °F 7.9 °F 15.8 °F 86% 29.87 in 10.0 mi NE 10.4 mph 16.1 mph N/A   Overcast
3:15 AM 19.4 °F 9.5 °F 15.8 °F 86% 29.87 in 10.0 mi NE 8.1 mph 16.1 mph N/A   Overcast
4:55 AM 17.6 °F 5.7 °F 12.2 °F 79% 29.92 in 10.0 mi NNE 10.4 mph - N/A   Overcast
5:15 AM 17.6 °F 6.4 °F 12.2 °F 79% 29.93 in 10.0 mi North 9.2 mph - N/A   Overcast
5:35 AM 17.6 °F 7.3 °F 12.2 °F 79% 29.94 in 10.0 mi North 8.1 mph - N/A   Overcast
5:55 AM 17.6 °F 6.4 °F 12.2 °F 79% 29.94 in 10.0 mi North 9.2 mph - N/A   Overcast
6:15 AM 17.6 °F 7.3 °F 12.2 °F 79% 29.95 in 10.0 mi North 8.1 mph - N/A   Overcast
6:35 AM 15.8 °F 4.2 °F 12.2 °F 86% 29.96 in 10.0 mi North 9.2 mph - N/A   Overcast
6:55 AM 15.8 °F 4.2 °F 10.4 °F 79% 29.96 in 10.0 mi NNE 9.2 mph - N/A   Overcast
7:15 AM 15.8 °F 5.1 °F 10.4 °F 79% 29.97 in 10.0 mi North 8.1 mph - N/A Snow Light Snow
7:35 AM 15.8 °F 7.2 °F 10.4 °F 79% 29.97 in 10.0 mi North 5.8 mph - N/A   Overcast
7:55 AM 15.8 °F 6.1 °F 8.6 °F 73% 29.97 in 10.0 mi NNE 6.9 mph - N/A   Overcast
8:15 AM 14.0 °F 2.0 °F 8.6 °F 79% 29.97 in 10.0 mi NNE 9.2 mph - N/A   Overcast
8:35 AM 14.0 °F 3.9 °F 8.6 °F 79% 29.99 in 10.0 mi NE 6.9 mph - N/A   Overcast
8:55 AM 14.0 °F 2.0 °F 8.6 °F 79% 30.00 in 10.0 mi North 9.2 mph - N/A   Overcast
9:15 AM 14.0 °F 1.2 °F 8.6 °F 79% 30.01 in 10.0 mi NNE 10.4 mph - N/A   Overcast
9:35 AM 14.0 °F 2.9 °F 8.6 °F 79% 30.02 in 10.0 mi NNE 8.1 mph - N/A   Overcast
9:55 AM 12.2 °F -0.2 °F 6.8 °F 79% 30.02 in 10.0 mi NNE 9.2 mph - N/A   Overcast
10:15 AM 14.0 °F 6.5 °F 8.6 °F 79% 30.01 in 10.0 mi NE 4.6 mph - N/A   Overcast
10:35 AM 15.8 °F 6.1 °F 8.6 °F 73% 30.00 in 10.0 mi NNE 6.9 mph - N/A   Overcast
10:55 AM 17.6 °F 12.3 °F 10.4 °F 73% 29.99 in 10.0 mi NNE 3.5 mph - N/A   Overcast
11:15 AM 17.6 °F 10.7 °F 10.4 °F 73% 29.99 in 10.0 mi NNE 4.6 mph - N/A   Scattered Clouds
11:35 AM 17.6 °F 12.3 °F 10.4 °F 73% 30.00 in 10.0 mi NE 3.5 mph - N/A   Clear
11:55 AM 17.6 °F - 10.4 °F 73% 30.00 in 10.0 mi Calm Calm - N/A   Mostly Cloudy
12:15 PM 17.6 °F 12.3 °F 10.4 °F 73% 29.99 in 10.0 mi WNW 3.5 mph - N/A Snow Light Snow
12:35 PM 19.4 °F 12.8 °F 12.2 °F 74% 29.99 in 4.0 mi WNW 4.6 mph - N/A Snow Light Snow
12:55 PM 19.4 °F 10.4 °F 12.2 °F 74% 29.99 in 7.0 mi West 6.9 mph - N/A Snow Light Snow
1:15 PM 19.4 °F 9.5 °F 12.2 °F 74% 29.99 in 10.0 mi WNW 8.1 mph - N/A Snow Light Snow
1:35 PM 19.4 °F 10.4 °F 14.0 °F 80% 29.98 in 10.0 mi West 6.9 mph - N/A   Overcast
1:55 PM - - - N/A% 29.96 in - West 6.9 mph - N/A   Unknown
2:15 PM 19.4 °F 8.6 °F 15.8 °F 86% 29.95 in 10.0 mi WNW 9.2 mph - N/A   Overcast
2:35 PM 19.4 °F 10.4 °F 15.8 °F 86% 29.95 in 10.0 mi West 6.9 mph - N/A   Overcast
2:55 PM 19.4 °F 11.5 °F 15.8 °F 86% 29.95 in 10.0 mi West 5.8 mph - N/A   Overcast
3:15 PM 21.2 °F 14.9 °F 15.8 °F 80% 29.94 in 10.0 mi WNW 4.6 mph - N/A   Overcast
3:35 PM 21.2 °F 14.9 °F 15.8 °F 80% 29.93 in 10.0 mi West 4.6 mph - N/A   Overcast
3:55 PM 21.2 °F - 15.8 °F 80% 29.92 in 10.0 mi Calm Calm - N/A   Overcast
4:15 PM 21.2 °F 13.6 °F 15.8 °F 80% 29.92 in 10.0 mi SW 5.8 mph - N/A   Overcast
4:35 PM 21.2 °F 14.9 °F 15.8 °F 80% 29.92 in 10.0 mi SW 4.6 mph - N/A   Overcast
4:55 PM 21.2 °F 14.9 °F 15.8 °F 80% 29.91 in 10.0 mi SSW 4.6 mph - N/A   Overcast
5:15 PM 21.2 °F 13.6 °F 15.8 °F 80% 29.90 in 10.0 mi SSW 5.8 mph - N/A   Mostly Cloudy
5:35 PM 21.2 °F 16.4 °F 15.8 °F 80% 29.89 in 10.0 mi South 3.5 mph - N/A   Mostly Cloudy
5:55 PM 21.2 °F 16.4 °F 15.8 °F 80% 29.88 in 10.0 mi SSE 3.5 mph - N/A   Mostly Cloudy
6:15 PM 21.2 °F 16.4 °F 17.6 °F 86% 29.87 in 10.0 mi South 3.5 mph - N/A   Overcast
6:35 PM 21.2 °F 14.9 °F 17.6 °F 86% 29.87 in 10.0 mi South 4.6 mph - N/A   Overcast
6:55 PM 21.2 °F 13.6 °F 17.6 °F 86% 29.86 in 10.0 mi South 5.8 mph - N/A   Mostly Cloudy
7:15 PM 21.2 °F 13.6 °F 17.6 °F 86% 29.85 in 10.0 mi SSW 5.8 mph - N/A   Mostly Cloudy
7:35 PM 23.0 °F 12.4 °F 19.4 °F 86% 29.85 in 10.0 mi SSW 10.4 mph - N/A   Overcast
7:55 PM 23.0 °F 11.7 °F 17.6 °F 80% 29.85 in 7.0 mi SSW 11.5 mph - N/A   Overcast
8:15 PM 23.0 °F 13.1 °F 19.4 °F 86% 29.84 in 7.0 mi SSW 9.2 mph - N/A   Overcast
8:35 PM 24.8 °F 15.3 °F 19.4 °F 80% 29.84 in 10.0 mi SSW 9.2 mph - N/A   Overcast
8:55 PM 24.8 °F 16.9 °F 19.4 °F 80% 29.84 in 10.0 mi SSW 6.9 mph - N/A   Overcast
9:15 PM 24.8 °F 14.6 °F 19.4 °F 80% 29.84 in 10.0 mi SSW 10.4 mph - N/A   Overcast
9:35 PM 24.8 °F 15.3 °F 19.4 °F 80% 29.82 in 10.0 mi SSW 9.2 mph - N/A   Mostly Cloudy
9:55 PM 24.8 °F 14.6 °F 19.4 °F 80% 29.82 in 10.0 mi SSW 10.4 mph - N/A   Overcast
10:15 PM 24.8 °F 15.3 °F 19.4 °F 80% 29.82 in 10.0 mi SSW 9.2 mph - N/A   Mostly Cloudy
10:35 PM 24.8 °F 14.6 °F 19.4 °F 80% 29.80 in 10.0 mi South 10.4 mph - N/A   Mostly Cloudy
10:55 PM 23.0 °F 13.1 °F 17.6 °F 80% 29.79 in 10.0 mi South 9.2 mph - N/A   Scattered Clouds
11:15 PM 23.0 °F 13.1 °F 17.6 °F 80% 29.79 in 10.0 mi SSW 9.2 mph - N/A   Mostly Cloudy
11:35 PM 23.0 °F 13.1 °F 17.6 °F 80% 29.79 in 10.0 mi South 9.2 mph - N/A   Overcast
11:55 PM 23.0 °F 12.4 °F 19.4 °F 86% 29.78 in 10.0 mi SSW 10.4 mph - N/A   Overcast